Time,TemperatureF,DewpointF,PressureIn,WindDirection,WindDirectionDegrees,WindSpeedMPH,WindSpeedGustMPH,Humidity,HourlyPrecipIn,Conditions,Clouds,dailyrainin,SoftwareType,DateUTC
2014-02-08 00:03:00,5.8,1.0,30.38,South,190,4.0,5.0,80,0.00,,,0.00,Wunderground v.1.15,2014-02-08 06:03:00,
2014-02-08 00:08:00,5.6,0.8,30.38,South,190,4.0,6.0,80,0.00,,,0.00,Wunderground v.1.15,2014-02-08 06:08:00,
2014-02-08 00:13:00,5.5,0.7,30.38,South,190,4.0,6.0,80,0.00,,,0.00,Wunderground v.1.15,2014-02-08 06:13:00,
2014-02-08 00:18:00,5.3,0.5,30.38,South,190,3.0,6.0,80,0.00,,,0.00,Wunderground v.1.15,2014-02-08 06:18:00,
2014-02-08 00:23:00,5.1,0.3,30.38,South,190,2.0,3.0,80,0.00,,,0.00,Wunderground v.1.15,2014-02-08 06:23:00,
2014-02-08 00:28:00,4.9,0.3,30.38,South,190,2.0,3.0,81,0.00,,,0.00,Wunderground v.1.15,2014-02-08 06:28:00,
2014-02-08 00:33:00,4.7,0.2,30.38,South,190,2.0,4.0,81,0.00,,,0.00,Wunderground v.1.15,2014-02-08 06:33:00,
2014-02-08 00:38:00,4.4,-0.1,30.38,South,190,3.0,5.0,81,0.00,,,0.00,Wunderground v.1.15,2014-02-08 06:38:00,
2014-02-08 00:43:00,4.2,-0.3,30.38,South,190,4.0,6.0,81,0.00,,,0.00,Wunderground v.1.15,2014-02-08 06:43:00,
2014-02-08 00:48:00,4.1,-0.2,30.37,South,190,4.0,6.0,82,0.00,,,0.00,Wunderground v.1.15,2014-02-08 06:48:00,
2014-02-08 00:53:00,4.1,-0.2,30.37,South,190,3.0,4.0,82,0.00,,,0.00,Wunderground v.1.15,2014-02-08 06:53:00,
2014-02-08 00:58:00,3.8,-0.5,30.37,South,190,3.0,5.0,82,0.00,,,0.00,Wunderground v.1.15,2014-02-08 06:58:00,
2014-02-08 01:03:00,3.5,-1.0,30.37,South,190,4.0,5.0,81,0.00,,,0.00,Wunderground v.1.15,2014-02-08 07:03:00,
2014-02-08 01:08:00,3.4,-0.9,30.37,South,190,4.0,5.0,82,0.00,,,0.00,Wunderground v.1.15,2014-02-08 07:08:00,
2014-02-08 01:13:00,3.4,-0.9,30.37,South,190,3.0,4.0,82,0.00,,,0.00,Wunderground v.1.15,2014-02-08 07:13:00,
2014-02-08 01:18:00,3.4,-0.6,30.36,South,190,2.0,4.0,83,0.00,,,0.00,Wunderground v.1.15,2014-02-08 07:18:00,
2014-02-08 01:23:00,3.5,-0.5,30.36,South,190,2.0,3.0,83,0.00,,,0.00,Wunderground v.1.15,2014-02-08 07:23:00,
2014-02-08 01:28:00,3.7,-0.3,30.37,South,190,2.0,4.0,83,0.00,,,0.00,Wunderground v.1.15,2014-02-08 07:28:00,
2014-02-08 01:33:00,3.6,-0.4,30.37,South,190,3.0,4.0,83,0.00,,,0.00,Wunderground v.1.15,2014-02-08 07:33:00,
2014-02-08 01:38:00,3.9,-0.1,30.37,South,190,3.0,5.0,83,0.00,,,0.00,Wunderground v.1.15,2014-02-08 07:38:00,
2014-02-08 01:43:00,4.1,0.1,30.37,South,190,3.0,5.0,83,0.00,,,0.00,Wunderground v.1.15,2014-02-08 07:43:00,
2014-02-08 01:48:00,4.3,0.3,30.37,South,190,3.0,5.0,83,0.00,,,0.00,Wunderground v.1.15,2014-02-08 07:48:00,
2014-02-08 01:53:00,4.5,0.5,30.37,South,190,3.0,4.0,83,0.00,,,0.00,Wunderground v.1.15,2014-02-08 07:53:00,
2014-02-08 01:58:00,4.7,0.7,30.36,South,190,2.0,4.0,83,0.00,,,0.00,Wunderground v.1.15,2014-02-08 07:58:00,
2014-02-08 02:03:00,4.9,0.9,30.36,South,190,3.0,4.0,83,0.00,,,0.00,Wunderground v.1.15,2014-02-08 08:03:00,
2014-02-08 02:08:00,5.1,1.1,30.36,South,190,3.0,5.0,83,0.00,,,0.00,Wunderground v.1.15,2014-02-08 08:08:00,
2014-02-08 02:13:00,5.3,1.3,30.36,South,190,3.0,5.0,83,0.00,,,0.00,Wunderground v.1.15,2014-02-08 08:13:00,
2014-02-08 02:18:00,5.5,1.5,30.36,South,190,4.0,6.0,83,0.00,,,0.00,Wunderground v.1.15,2014-02-08 08:18:00,
2014-02-08 02:23:00,5.8,1.8,30.36,South,190,4.0,6.0,83,0.00,,,0.00,Wunderground v.1.15,2014-02-08 08:23:00,
2014-02-08 02:28:00,6.0,1.9,30.36,South,190,5.0,6.0,83,0.00,,,0.00,Wunderground v.1.15,2014-02-08 08:28:00,
2014-02-08 02:33:00,6.1,2.0,30.36,South,190,5.0,6.0,83,0.00,,,0.00,Wunderground v.1.15,2014-02-08 08:33:00,
2014-02-08 02:38:00,6.3,2.2,30.36,South,190,4.0,6.0,83,0.00,,,0.00,Wunderground v.1.15,2014-02-08 08:38:00,
2014-02-08 02:43:00,6.4,2.3,30.35,South,190,3.0,5.0,83,0.00,,,0.00,Wunderground v.1.15,2014-02-08 08:43:00,
2014-02-08 02:48:00,6.5,2.4,30.35,South,190,3.0,5.0,83,0.00,,,0.00,Wunderground v.1.15,2014-02-08 08:48:00,
2014-02-08 02:53:00,6.5,2.4,30.35,South,190,3.0,4.0,83,0.00,,,0.00,Wunderground v.1.15,2014-02-08 08:53:00,
2014-02-08 02:58:00,6.6,2.5,30.35,South,190,3.0,5.0,83,0.00,,,0.00,Wunderground v.1.15,2014-02-08 08:58:00,
2014-02-08 03:03:00,6.7,2.6,30.35,South,190,4.0,6.0,83,0.00,,,0.00,Wunderground v.1.15,2014-02-08 09:03:00,
2014-02-08 03:08:00,6.9,2.8,30.35,SSW,194,4.0,6.0,83,0.00,,,0.00,Wunderground v.1.15,2014-02-08 09:08:00,
2014-02-08 03:13:00,7.2,3.1,30.35,South,186,4.0,6.0,83,0.00,,,0.00,Wunderground v.1.15,2014-02-08 09:13:00,
2014-02-08 03:18:00,7.4,3.3,30.35,South,186,4.0,6.0,83,0.00,,,0.00,Wunderground v.1.15,2014-02-08 09:18:00,
2014-02-08 03:23:00,7.5,3.4,30.35,South,186,3.0,5.0,83,0.00,,,0.00,Wunderground v.1.15,2014-02-08 09:23:00,
2014-02-08 03:28:00,7.7,3.6,30.35,South,186,3.0,5.0,83,0.00,,,0.00,Wunderground v.1.15,2014-02-08 09:28:00,
2014-02-08 03:33:00,7.7,3.6,30.34,South,186,4.0,6.0,83,0.00,,,0.00,Wunderground v.1.15,2014-02-08 09:33:00,
2014-02-08 03:38:00,7.8,3.7,30.34,SSE,166,3.0,6.0,83,0.00,,,0.00,Wunderground v.1.15,2014-02-08 09:38:00,
2014-02-08 03:43:00,7.9,3.8,30.34,SSE,166,3.0,5.0,83,0.00,,,0.00,Wunderground v.1.15,2014-02-08 09:43:00,
2014-02-08 03:48:00,8.0,3.9,30.34,SSE,166,3.0,5.0,83,0.00,,,0.00,Wunderground v.1.15,2014-02-08 09:48:00,
2014-02-08 03:53:00,8.1,4.0,30.34,SSE,166,3.0,4.0,83,0.00,,,0.00,Wunderground v.1.15,2014-02-08 09:53:00,
2014-02-08 03:58:00,8.2,4.1,30.34,SSE,166,2.0,4.0,83,0.00,,,0.00,Wunderground v.1.15,2014-02-08 09:58:00,
2014-02-08 04:03:00,8.2,4.1,30.33,SSE,166,2.0,4.0,83,0.00,,,0.00,Wunderground v.1.15,2014-02-08 10:03:00,
2014-02-08 04:08:00,8.3,4.2,30.33,SSE,166,2.0,4.0,83,0.00,,,0.00,Wunderground v.1.15,2014-02-08 10:08:00,
2014-02-08 04:13:00,8.4,4.0,30.33,SSE,166,1.0,2.0,82,0.00,,,0.00,Wunderground v.1.15,2014-02-08 10:13:00,
2014-02-08 04:18:00,8.5,4.1,30.32,SSE,166,1.0,3.0,82,0.00,,,0.00,Wunderground v.1.15,2014-02-08 10:18:00,
2014-02-08 04:23:00,8.5,4.1,30.32,SSE,166,1.0,3.0,82,0.00,,,0.00,Wunderground v.1.15,2014-02-08 10:23:00,
2014-02-08 04:28:00,8.5,4.1,30.32,SSE,166,1.0,3.0,82,0.00,,,0.00,Wunderground v.1.15,2014-02-08 10:28:00,
2014-02-08 04:33:00,8.6,4.2,30.32,SSE,166,1.0,3.0,82,0.00,,,0.00,Wunderground v.1.15,2014-02-08 10:33:00,
2014-02-08 04:38:00,8.7,4.3,30.32,SSE,166,1.0,3.0,82,0.00,,,0.00,Wunderground v.1.15,2014-02-08 10:38:00,
2014-02-08 04:43:00,8.7,4.3,30.32,SSE,166,1.0,3.0,82,0.00,,,0.00,Wunderground v.1.15,2014-02-08 10:43:00,
2014-02-08 04:48:00,8.7,4.3,30.32,SSE,166,2.0,5.0,82,0.00,,,0.00,Wunderground v.1.15,2014-02-08 10:48:00,
2014-02-08 04:53:00,8.7,4.3,30.32,SSE,166,2.0,4.0,82,0.00,,,0.00,Wunderground v.1.15,2014-02-08 10:53:00,
2014-02-08 04:58:00,8.8,4.4,30.32,SSE,166,2.0,4.0,82,0.00,,,0.00,Wunderground v.1.15,2014-02-08 10:58:00,
2014-02-08 05:03:00,8.9,4.5,30.32,SSE,166,2.0,4.0,82,0.00,,,0.00,Wunderground v.1.15,2014-02-08 11:03:00,
2014-02-08 05:08:00,8.9,4.5,30.32,SSE,166,2.0,4.0,82,0.00,,,0.00,Wunderground v.1.15,2014-02-08 11:08:00,
2014-02-08 05:13:00,9.0,4.4,30.32,SSE,166,2.0,2.0,81,0.00,,,0.00,Wunderground v.1.15,2014-02-08 11:13:00,
2014-02-08 05:18:00,9.1,4.5,30.32,SSE,166,0.0,2.0,81,0.00,,,0.00,Wunderground v.1.15,2014-02-08 11:18:00,
2014-02-08 05:23:00,9.2,4.6,30.32,SSE,166,0.0,0.0,81,0.00,,,0.00,Wunderground v.1.15,2014-02-08 11:23:00,
2014-02-08 05:28:00,9.2,4.6,30.32,SSE,166,0.0,2.0,81,0.00,,,0.00,Wunderground v.1.15,2014-02-08 11:28:00,
2014-02-08 05:33:00,9.2,4.6,30.31,SSE,166,0.0,2.0,81,0.00,,,0.00,Wunderground v.1.15,2014-02-08 11:33:00,
2014-02-08 05:38:00,9.2,4.6,30.31,SSE,166,0.0,2.0,81,0.00,,,0.00,Wunderground v.1.15,2014-02-08 11:38:00,
2014-02-08 05:43:00,9.3,4.6,30.31,SSE,166,1.0,2.0,81,0.00,,,0.00,Wunderground v.1.15,2014-02-08 11:43:00,
2014-02-08 05:48:00,9.3,4.6,30.31,SSE,166,0.0,2.0,81,0.00,,,0.00,Wunderground v.1.15,2014-02-08 11:48:00,
2014-02-08 05:53:00,9.4,4.7,30.30,SSE,166,1.0,3.0,81,0.00,,,0.00,Wunderground v.1.15,2014-02-08 11:53:00,
2014-02-08 05:58:00,9.4,4.7,30.30,SSE,166,1.0,3.0,81,0.00,,,0.00,Wunderground v.1.15,2014-02-08 11:58:00,
2014-02-08 06:03:00,9.4,4.7,30.30,SSE,166,1.0,2.0,81,0.00,,,0.00,Wunderground v.1.15,2014-02-08 12:03:00,
2014-02-08 06:08:00,9.4,4.7,30.31,SSE,166,1.0,3.0,81,0.00,,,0.00,Wunderground v.1.15,2014-02-08 12:08:00,
2014-02-08 06:13:00,9.5,4.8,30.31,SSE,166,1.0,2.0,81,0.00,,,0.00,Wunderground v.1.15,2014-02-08 12:13:00,
2014-02-08 06:18:00,9.5,4.8,30.30,SSE,166,1.0,3.0,81,0.00,,,0.00,Wunderground v.1.15,2014-02-08 12:18:00,
2014-02-08 06:23:00,9.5,4.8,30.30,SSE,166,1.0,2.0,81,0.00,,,0.00,Wunderground v.1.15,2014-02-08 12:23:00,
2014-02-08 06:28:00,9.5,4.8,30.30,SSE,166,1.0,2.0,81,0.00,,,0.00,Wunderground v.1.15,2014-02-08 12:28:00,
2014-02-08 06:33:00,9.5,4.8,30.30,SSE,166,1.0,3.0,81,0.00,,,0.00,Wunderground v.1.15,2014-02-08 12:33:00,
2014-02-08 06:38:00,9.5,4.8,30.30,SSE,166,1.0,3.0,81,0.00,,,0.00,Wunderground v.1.15,2014-02-08 12:38:00,
2014-02-08 06:43:00,9.5,5.1,30.30,SSE,166,0.0,1.0,82,0.00,,,0.00,Wunderground v.1.15,2014-02-08 12:43:00,
2014-02-08 06:48:00,9.4,5.0,30.31,SSE,166,0.0,2.0,82,0.00,,,0.00,Wunderground v.1.15,2014-02-08 12:48:00,
2014-02-08 06:53:00,9.4,5.0,30.31,SSE,166,0.0,2.0,82,0.00,,,0.00,Wunderground v.1.15,2014-02-08 12:53:00,
2014-02-08 06:58:00,9.4,5.0,30.31,SSE,166,1.0,4.0,82,0.00,,,0.00,Wunderground v.1.15,2014-02-08 12:58:00,
2014-02-08 07:03:00,9.4,5.3,30.31,SSE,166,2.0,4.0,83,0.00,,,0.00,Wunderground v.1.15,2014-02-08 13:03:00,
2014-02-08 07:08:00,9.5,5.4,30.31,SSE,166,2.0,4.0,83,0.00,,,0.00,Wunderground v.1.15,2014-02-08 13:08:00,
2014-02-08 07:13:00,9.6,5.5,30.31,SE,140,3.0,4.0,83,0.00,,,0.00,Wunderground v.1.15,2014-02-08 13:13:00,
2014-02-08 07:18:00,9.6,5.5,30.30,SE,141,3.0,6.0,83,0.00,,,0.00,Wunderground v.1.15,2014-02-08 13:18:00,
2014-02-08 07:23:00,9.6,5.7,30.30,ESE,123,4.0,8.0,84,0.00,,,0.00,Wunderground v.1.15,2014-02-08 13:23:00,
2014-02-08 07:28:00,9.7,5.8,30.30,SSE,157,4.0,8.0,84,0.00,,,0.00,Wunderground v.1.15,2014-02-08 13:28:00,
2014-02-08 07:33:00,9.8,5.9,30.30,SE,146,4.0,6.0,84,0.00,,,0.00,Wunderground v.1.15,2014-02-08 13:33:00,
2014-02-08 07:38:00,9.8,5.9,30.30,SE,140,4.0,7.0,84,0.00,,,0.00,Wunderground v.1.15,2014-02-08 13:38:00,
2014-02-08 07:43:00,9.8,5.9,30.30,SE,135,4.0,8.0,84,0.00,,,0.00,Wunderground v.1.15,2014-02-08 13:43:00,
2014-02-08 07:48:00,9.8,6.2,30.30,SSE,147,4.0,8.0,85,0.00,,,0.00,Wunderground v.1.15,2014-02-08 13:48:00,
2014-02-08 07:53:00,9.8,6.2,30.30,SE,137,4.0,5.0,85,0.00,,,0.00,Wunderground v.1.15,2014-02-08 13:53:00,
2014-02-08 07:58:00,9.9,6.3,30.31,SE,136,4.0,7.0,85,0.00,,,0.00,Wunderground v.1.15,2014-02-08 13:58:00,
2014-02-08 08:03:00,10.2,6.6,30.30,SSE,165,4.0,7.0,85,0.00,,,0.00,Wunderground v.1.15,2014-02-08 14:03:00,
2014-02-08 08:08:00,10.6,7.0,30.31,South,179,4.0,9.0,85,0.00,,,0.00,Wunderground v.1.15,2014-02-08 14:08:00,
2014-02-08 08:13:00,10.6,7.0,30.30,South,184,5.0,8.0,85,0.00,,,0.00,Wunderground v.1.15,2014-02-08 14:13:00,
2014-02-08 08:18:00,10.5,6.9,30.30,South,178,6.0,10.0,85,0.00,,,0.00,Wunderground v.1.15,2014-02-08 14:18:00,
2014-02-08 08:23:00,10.5,6.9,30.30,South,182,6.0,9.0,85,0.00,,,0.00,Wunderground v.1.15,2014-02-08 14:23:00,
2014-02-08 08:28:00,10.6,7.0,30.30,SE,140,6.0,9.0,85,0.00,,,0.00,Wunderground v.1.15,2014-02-08 14:28:00,
2014-02-08 08:33:00,10.6,7.0,30.30,South,177,6.0,9.0,85,0.00,,,0.00,Wunderground v.1.15,2014-02-08 14:33:00,
2014-02-08 08:38:00,10.8,7.2,30.30,SSE,163,6.0,10.0,85,0.00,,,0.00,Wunderground v.1.15,2014-02-08 14:38:00,
2014-02-08 08:43:00,10.8,7.2,30.30,SSE,157,5.0,8.0,85,0.00,,,0.00,Wunderground v.1.15,2014-02-08 14:43:00,
2014-02-08 08:48:00,10.7,7.1,30.29,SE,138,5.0,9.0,85,0.00,,,0.00,Wunderground v.1.15,2014-02-08 14:48:00,
2014-02-08 08:53:00,10.7,7.3,30.29,SSE,165,5.0,7.0,86,0.00,,,0.00,Wunderground v.1.15,2014-02-08 14:53:00,
2014-02-08 08:58:00,10.9,7.5,30.29,SSE,161,4.0,7.0,86,0.00,,,0.00,Wunderground v.1.15,2014-02-08 14:58:00,
2014-02-08 09:03:00,11.0,7.6,30.29,SSE,150,4.0,6.0,86,0.00,,,0.00,Wunderground v.1.15,2014-02-08 15:03:00,
2014-02-08 09:08:00,11.3,7.9,30.29,SSE,167,4.0,6.0,86,0.00,,,0.00,Wunderground v.1.15,2014-02-08 15:08:00,
2014-02-08 09:13:00,11.4,8.0,30.29,SSE,160,4.0,6.0,86,0.00,,,0.00,Wunderground v.1.15,2014-02-08 15:13:00,
2014-02-08 09:18:00,11.8,8.4,30.29,South,170,5.0,9.0,86,0.00,,,0.00,Wunderground v.1.15,2014-02-08 15:18:00,
2014-02-08 09:23:00,12.1,8.7,30.28,SSE,149,5.0,6.0,86,0.00,,,0.00,Wunderground v.1.15,2014-02-08 15:23:00,
2014-02-08 09:28:00,12.0,8.4,30.28,SE,131,4.0,6.0,85,0.00,,,0.00,Wunderground v.1.15,2014-02-08 15:28:00,
2014-02-08 09:33:00,12.0,8.4,30.28,SE,126,3.0,6.0,85,0.00,,,0.00,Wunderground v.1.15,2014-02-08 15:33:00,
2014-02-08 09:38:00,12.1,8.5,30.28,SE,136,4.0,7.0,85,0.00,,,0.00,Wunderground v.1.15,2014-02-08 15:38:00,
2014-02-08 09:43:00,12.2,8.6,30.28,South,184,4.0,7.0,85,0.00,,,0.00,Wunderground v.1.15,2014-02-08 15:43:00,
2014-02-08 09:48:00,12.5,9.1,30.28,South,182,4.0,9.0,86,0.00,,,0.00,Wunderground v.1.15,2014-02-08 15:48:00,
2014-02-08 09:53:00,12.8,9.4,30.27,SSE,167,5.0,8.0,86,0.00,,,0.00,Wunderground v.1.15,2014-02-08 15:53:00,
2014-02-08 09:58:00,13.1,9.4,30.28,South,170,4.0,9.0,85,0.00,,,0.00,Wunderground v.1.15,2014-02-08 15:58:00,
2014-02-08 10:03:00,13.5,9.8,30.27,South,178,4.0,8.0,85,0.00,,,0.00,Wunderground v.1.15,2014-02-08 16:03:00,
2014-02-08 10:08:00,13.8,9.9,30.28,South,181,5.0,9.0,84,0.00,,,0.00,Wunderground v.1.15,2014-02-08 16:08:00,
2014-02-08 10:13:00,13.7,9.8,30.27,SE,145,4.0,8.0,84,0.00,,,0.00,Wunderground v.1.15,2014-02-08 16:13:00,
2014-02-08 10:18:00,13.9,10.0,30.27,South,174,4.0,11.0,84,0.00,,,0.00,Wunderground v.1.15,2014-02-08 16:18:00,
2014-02-08 10:23:00,14.1,10.2,30.28,SSE,154,4.0,7.0,84,0.00,,,0.00,Wunderground v.1.15,2014-02-08 16:23:00,
2014-02-08 10:28:00,14.0,9.8,30.28,SSE,167,4.0,7.0,83,0.00,,,0.00,Wunderground v.1.15,2014-02-08 16:28:00,
2014-02-08 10:33:00,13.8,9.6,30.28,SSE,167,4.0,7.0,83,0.00,,,0.00,Wunderground v.1.15,2014-02-08 16:33:00,
2014-02-08 10:38:00,13.7,9.8,30.28,South,174,5.0,10.0,84,0.00,,,0.00,Wunderground v.1.15,2014-02-08 16:38:00,
2014-02-08 10:43:00,13.6,9.7,30.28,SSE,156,5.0,8.0,84,0.00,,,0.00,Wunderground v.1.15,2014-02-08 16:43:00,
2014-02-08 10:48:00,13.4,9.7,30.28,SSE,161,5.0,9.0,85,0.00,,,0.00,Wunderground v.1.15,2014-02-08 16:48:00,
2014-02-08 10:53:00,13.2,9.8,30.25,ESE,113,4.0,7.0,86,0.00,,,0.00,Wunderground v.1.15,2014-02-08 16:53:00,
2014-02-08 10:58:00,13.0,9.6,30.26,SSE,157,4.0,9.0,86,0.00,,,0.00,Wunderground v.1.15,2014-02-08 16:58:00,
2014-02-08 11:03:00,13.0,9.9,30.26,South,185,5.0,9.0,87,0.00,,,0.00,Wunderground v.1.15,2014-02-08 17:03:00,
2014-02-08 11:08:00,13.1,10.2,30.26,SSE,159,5.0,10.0,88,0.00,,,0.00,Wunderground v.1.15,2014-02-08 17:08:00,
2014-02-08 11:13:00,13.2,10.3,30.26,SE,140,5.0,7.0,88,0.00,,,0.00,Wunderground v.1.15,2014-02-08 17:13:00,
2014-02-08 11:18:00,13.1,10.2,30.25,SE,138,4.0,9.0,88,0.00,,,0.00,Wunderground v.1.15,2014-02-08 17:18:00,
2014-02-08 11:23:00,13.3,10.7,30.25,SE,132,4.0,8.0,89,0.00,,,0.00,Wunderground v.1.15,2014-02-08 17:23:00,
2014-02-08 11:28:00,13.4,10.8,30.25,South,179,4.0,8.0,89,0.00,,,0.00,Wunderground v.1.15,2014-02-08 17:28:00,
2014-02-08 11:33:00,13.5,10.9,30.25,SSE,147,5.0,7.0,89,0.00,,,0.00,Wunderground v.1.15,2014-02-08 17:33:00,
2014-02-08 11:38:00,13.4,10.8,30.25,SE,141,4.0,7.0,89,0.00,,,0.00,Wunderground v.1.15,2014-02-08 17:38:00,
2014-02-08 11:43:00,13.5,10.9,30.25,SE,134,4.0,7.0,89,0.00,,,0.00,Wunderground v.1.15,2014-02-08 17:43:00,
2014-02-08 11:48:00,13.5,10.9,30.24,SSE,167,3.0,7.0,89,0.00,,,0.00,Wunderground v.1.15,2014-02-08 17:48:00,
2014-02-08 11:53:00,13.6,11.0,30.24,SE,126,4.0,6.0,89,0.00,,,0.00,Wunderground v.1.15,2014-02-08 17:53:00,
2014-02-08 11:58:00,13.9,11.5,30.24,SSE,152,4.0,9.0,90,0.00,,,0.00,Wunderground v.1.15,2014-02-08 17:58:00,
2014-02-08 12:03:00,14.0,11.4,30.23,SSE,163,4.0,8.0,89,0.00,,,0.00,Wunderground v.1.15,2014-02-08 18:03:00,
2014-02-08 12:08:00,14.2,11.6,30.23,SE,132,4.0,8.0,89,0.00,,,0.00,Wunderground v.1.15,2014-02-08 18:08:00,
2014-02-08 12:13:00,14.4,11.8,30.23,SSE,167,4.0,8.0,89,0.00,,,0.00,Wunderground v.1.15,2014-02-08 18:13:00,
2014-02-08 12:18:00,14.6,11.9,30.22,ESE,107,4.0,8.0,89,0.00,,,0.00,Wunderground v.1.15,2014-02-08 18:18:00,
2014-02-08 12:23:00,14.5,11.6,30.22,East,88,5.0,10.0,88,0.00,,,0.00,Wunderground v.1.15,2014-02-08 18:23:00,
2014-02-08 12:28:00,14.5,11.6,30.22,ESE,123,5.0,10.0,88,0.00,,,0.00,Wunderground v.1.15,2014-02-08 18:28:00,
2014-02-08 12:33:00,14.7,11.8,30.21,SE,140,5.0,8.0,88,0.00,,,0.00,Wunderground v.1.15,2014-02-08 18:33:00,
2014-02-08 12:38:00,15.0,12.1,30.21,SE,138,5.0,8.0,88,0.00,,,0.00,Wunderground v.1.15,2014-02-08 18:38:00,
2014-02-08 12:43:00,15.1,12.2,30.21,SSE,147,4.0,8.0,88,0.00,,,0.00,Wunderground v.1.15,2014-02-08 18:43:00,
2014-02-08 12:48:00,15.4,12.5,30.21,South,190,5.0,9.0,88,0.00,,,0.00,Wunderground v.1.15,2014-02-08 18:48:00,
2014-02-08 12:53:00,15.6,12.4,30.21,SSE,166,6.0,12.0,87,0.00,,,0.00,Wunderground v.1.15,2014-02-08 18:53:00,
2014-02-08 12:58:00,15.7,12.3,30.20,South,186,7.0,12.0,86,0.00,,,0.00,Wunderground v.1.15,2014-02-08 18:58:00,
2014-02-08 13:03:00,15.8,12.6,30.20,South,182,6.0,8.0,87,0.00,,,0.00,Wunderground v.1.15,2014-02-08 19:03:00,
2014-02-08 13:08:00,15.9,12.5,30.19,South,188,7.0,12.0,86,0.00,,,0.00,Wunderground v.1.15,2014-02-08 19:08:00,
2014-02-08 13:13:00,15.8,12.4,30.19,South,177,7.0,11.0,86,0.00,,,0.00,Wunderground v.1.15,2014-02-08 19:13:00,
2014-02-08 13:18:00,15.7,12.3,30.19,SSE,167,6.0,11.0,86,0.00,,,0.00,Wunderground v.1.15,2014-02-08 19:18:00,
2014-02-08 13:20:00,15.5,12.1,30.19,SE,129,6.0,7.0,86,0.00,,,0.00,Wunderground v.1.15,2014-02-08 19:20:00,
2014-02-08 13:25:00,15.4,12.0,30.19,SE,138,6.0,9.0,86,0.00,,,0.00,Wunderground v.1.15,2014-02-08 19:25:00,
2014-02-08 13:30:00,15.3,11.9,30.18,SE,133,6.0,6.0,86,0.00,,,0.00,Wunderground v.1.15,2014-02-08 19:30:00,
2014-02-08 13:35:00,15.1,11.9,30.18,ESE,118,5.0,9.0,87,0.00,,,0.00,Wunderground v.1.15,2014-02-08 19:35:00,
2014-02-08 13:40:00,15.3,12.1,30.18,South,169,5.0,7.0,87,0.00,,,0.00,Wunderground v.1.15,2014-02-08 19:40:00,
2014-02-08 13:45:00,15.5,12.3,30.18,SSE,151,5.0,10.0,87,0.00,,,0.00,Wunderground v.1.15,2014-02-08 19:45:00,
2014-02-08 13:50:00,15.7,12.5,30.18,South,180,5.0,9.0,87,0.00,,,0.00,Wunderground v.1.15,2014-02-08 19:50:00,
2014-02-08 13:55:00,15.5,12.1,30.18,SE,142,5.0,9.0,86,0.00,,,0.00,Wunderground v.1.15,2014-02-08 19:55:00,
2014-02-08 14:00:00,15.4,12.2,30.18,SSE,157,5.0,7.0,87,0.00,,,0.00,Wunderground v.1.15,2014-02-08 20:00:00,
2014-02-08 14:05:00,15.6,12.4,30.18,South,181,5.0,10.0,87,0.00,,,0.00,Wunderground v.1.15,2014-02-08 20:05:00,
2014-02-08 14:10:00,15.8,12.6,30.18,SSE,148,5.0,6.0,87,0.00,,,0.00,Wunderground v.1.15,2014-02-08 20:10:00,
2014-02-08 14:15:00,15.9,12.7,30.18,South,178,5.0,12.0,87,0.00,,,0.00,Wunderground v.1.15,2014-02-08 20:15:00,
2014-02-08 14:20:00,15.9,12.7,30.18,South,175,6.0,6.0,87,0.00,,,0.00,Wunderground v.1.15,2014-02-08 20:20:00,
2014-02-08 14:25:00,15.8,12.4,30.18,SSE,147,6.0,11.0,86,0.00,,,0.00,Wunderground v.1.15,2014-02-08 20:25:00,
2014-02-08 14:30:00,15.7,12.5,30.18,SE,146,5.0,6.0,87,0.00,,,0.00,Wunderground v.1.15,2014-02-08 20:30:00,
2014-02-08 14:35:00,15.7,12.5,30.18,SE,139,5.0,8.0,87,0.00,,,0.00,Wunderground v.1.15,2014-02-08 20:35:00,
2014-02-08 14:40:00,15.5,12.3,30.18,SE,136,5.0,7.0,87,0.00,,,0.00,Wunderground v.1.15,2014-02-08 20:40:00,
2014-02-08 14:45:00,15.5,12.6,30.18,SE,146,5.0,9.0,88,0.00,,,0.00,Wunderground v.1.15,2014-02-08 20:45:00,
2014-02-08 14:50:00,15.4,12.5,30.18,SSE,148,5.0,9.0,88,0.00,,,0.00,Wunderground v.1.15,2014-02-08 20:50:00,
2014-02-08 14:53:00,15.4,12.5,30.18,SSE,149,5.0,9.0,88,0.00,,,0.00,Wunderground v.1.15,2014-02-08 20:53:00,
2014-02-08 14:58:00,15.5,12.6,30.18,South,181,5.0,9.0,88,0.00,,,0.00,Wunderground v.1.15,2014-02-08 20:58:00,
2014-02-08 15:03:00,15.7,12.8,30.17,ESE,115,4.0,7.0,88,0.00,,,0.00,Wunderground v.1.15,2014-02-08 21:03:00,
2014-02-08 15:08:00,15.5,12.6,30.17,SE,144,4.0,9.0,88,0.00,,,0.00,Wunderground v.1.15,2014-02-08 21:08:00,
2014-02-08 15:13:00,15.6,12.7,30.17,South,170,4.0,10.0,88,0.00,,,0.00,Wunderground v.1.15,2014-02-08 21:13:00,
2014-02-08 15:18:00,15.6,12.7,30.17,South,169,4.0,10.0,88,0.00,,,0.00,Wunderground v.1.15,2014-02-08 21:18:00,
2014-02-08 15:23:00,15.7,12.8,30.18,SSE,153,5.0,8.0,88,0.00,,,0.00,Wunderground v.1.15,2014-02-08 21:23:00,
2014-02-08 15:28:00,15.8,12.9,30.18,SSW,200,5.0,8.0,88,0.00,,,0.00,Wunderground v.1.15,2014-02-08 21:28:00,
2014-02-08 15:33:00,15.9,13.0,30.18,SSE,156,5.0,8.0,88,0.00,,,0.00,Wunderground v.1.15,2014-02-08 21:33:00,
2014-02-08 15:38:00,15.8,12.9,30.18,South,173,4.0,8.0,88,0.00,,,0.00,Wunderground v.1.15,2014-02-08 21:38:00,
2014-02-08 15:43:00,15.7,12.8,30.17,South,175,4.0,7.0,88,0.00,,,0.00,Wunderground v.1.15,2014-02-08 21:43:00,
2014-02-08 15:48:00,15.7,13.0,30.18,South,170,5.0,8.0,89,0.00,,,0.00,Wunderground v.1.15,2014-02-08 21:48:00,
2014-02-08 15:53:00,15.5,12.8,30.18,SSE,166,5.0,9.0,89,0.00,,,0.00,Wunderground v.1.15,2014-02-08 21:53:00,
2014-02-08 15:58:00,15.5,12.8,30.18,SSE,160,4.0,9.0,89,0.00,,,0.00,Wunderground v.1.15,2014-02-08 21:58:00,
2014-02-08 16:03:00,15.4,12.7,30.18,SSE,165,3.0,6.0,89,0.00,,,0.00,Wunderground v.1.15,2014-02-08 22:03:00,
2014-02-08 16:08:00,15.5,12.8,30.18,SE,138,4.0,8.0,89,0.00,,,0.00,Wunderground v.1.15,2014-02-08 22:08:00,
2014-02-08 16:13:00,15.4,12.7,30.17,SSE,168,4.0,7.0,89,0.00,,,0.00,Wunderground v.1.15,2014-02-08 22:13:00,
2014-02-08 16:18:00,15.3,12.6,30.17,South,173,4.0,9.0,89,0.00,,,0.00,Wunderground v.1.15,2014-02-08 22:18:00,
2014-02-08 16:23:00,15.2,12.8,30.17,South,178,5.0,8.0,90,0.00,,,0.00,Wunderground v.1.15,2014-02-08 22:23:00,
2014-02-08 16:28:00,15.2,12.8,30.17,South,171,5.0,9.0,90,0.00,,,0.00,Wunderground v.1.15,2014-02-08 22:28:00,
2014-02-08 16:33:00,15.2,12.8,30.18,SSW,194,5.0,9.0,90,0.00,,,0.00,Wunderground v.1.15,2014-02-08 22:33:00,
2014-02-08 16:38:00,15.2,12.8,30.18,SSE,159,4.0,9.0,90,0.00,,,0.00,Wunderground v.1.15,2014-02-08 22:38:00,
2014-02-08 16:43:00,15.1,12.7,30.17,South,182,4.0,5.0,90,0.00,,,0.00,Wunderground v.1.15,2014-02-08 22:43:00,
2014-02-08 16:48:00,15.1,12.7,30.18,SE,135,3.0,6.0,90,0.00,,,0.00,Wunderground v.1.15,2014-02-08 22:48:00,
2014-02-08 16:53:00,15.1,12.7,30.17,SSE,167,4.0,7.0,90,0.00,,,0.00,Wunderground v.1.15,2014-02-08 22:53:00,
2014-02-08 16:58:00,15.1,12.7,30.17,South,177,4.0,9.0,90,0.00,,,0.00,Wunderground v.1.15,2014-02-08 22:58:00,
2014-02-08 17:03:00,15.0,12.6,30.18,South,182,4.0,8.0,90,0.00,,,0.00,Wunderground v.1.15,2014-02-08 23:03:00,
2014-02-08 17:08:00,15.0,12.8,30.18,South,183,4.0,8.0,91,0.00,,,0.00,Wunderground v.1.15,2014-02-08 23:08:00,
2014-02-08 17:13:00,14.9,12.7,30.18,South,183,3.0,6.0,91,0.00,,,0.00,Wunderground v.1.15,2014-02-08 23:13:00,
2014-02-08 17:18:00,14.9,12.7,30.18,South,183,3.0,6.0,91,0.00,,,0.00,Wunderground v.1.15,2014-02-08 23:18:00,
2014-02-08 17:23:00,14.9,12.7,30.18,South,183,4.0,6.0,91,0.00,,,0.00,Wunderground v.1.15,2014-02-08 23:23:00,
2014-02-08 17:28:00,14.9,12.7,30.19,South,182,4.0,6.0,91,0.00,,,0.00,Wunderground v.1.15,2014-02-08 23:28:00,
2014-02-08 17:33:00,14.8,12.6,30.19,South,183,3.0,4.0,91,0.00,,,0.00,Wunderground v.1.15,2014-02-08 23:33:00,
2014-02-08 17:38:00,14.8,12.6,30.18,South,183,2.0,4.0,91,0.00,,,0.00,Wunderground v.1.15,2014-02-08 23:38:00,
2014-02-08 17:43:00,14.8,12.6,30.18,South,183,1.0,2.0,91,0.00,,,0.00,Wunderground v.1.15,2014-02-08 23:43:00,
2014-02-08 17:48:00,14.6,12.5,30.18,South,183,1.0,3.0,91,0.00,,,0.00,Wunderground v.1.15,2014-02-08 23:48:00,
2014-02-08 17:53:00,14.5,12.4,30.18,South,183,2.0,3.0,91,0.00,,,0.00,Wunderground v.1.15,2014-02-08 23:53:00,
2014-02-08 17:58:00,14.2,12.1,30.18,South,183,1.0,3.0,91,0.00,,,0.00,Wunderground v.1.15,2014-02-08 23:58:00,
2014-02-08 18:03:00,14.0,11.9,30.18,South,183,1.0,2.0,91,0.00,,,0.00,Wunderground v.1.15,2014-02-09 00:03:00,
2014-02-08 18:08:00,13.8,11.7,30.19,South,183,0.0,3.0,91,0.00,,,0.00,Wunderground v.1.15,2014-02-09 00:08:00,
2014-02-08 18:13:00,13.7,11.6,30.19,South,183,1.0,4.0,91,0.00,,,0.00,Wunderground v.1.15,2014-02-09 00:13:00,
2014-02-08 18:18:00,13.5,11.4,30.19,South,183,2.0,4.0,91,0.00,,,0.00,Wunderground v.1.15,2014-02-09 00:18:00,
2014-02-08 18:23:00,13.5,11.6,30.19,South,183,3.0,4.0,92,0.00,,,0.00,Wunderground v.1.15,2014-02-09 00:23:00,
2014-02-08 18:28:00,13.4,11.5,30.19,South,183,2.0,4.0,92,0.00,,,0.00,Wunderground v.1.15,2014-02-09 00:28:00,
2014-02-08 18:33:00,13.4,11.5,30.19,South,183,2.0,3.0,92,0.00,,,0.00,Wunderground v.1.15,2014-02-09 00:33:00,
2014-02-08 18:38:00,13.4,11.5,30.19,South,183,2.0,3.0,92,0.00,,,0.00,Wunderground v.1.15,2014-02-09 00:38:00,
2014-02-08 18:43:00,13.2,11.3,30.19,South,183,1.0,2.0,92,0.00,,,0.00,Wunderground v.1.15,2014-02-09 00:43:00,
2014-02-08 18:48:00,13.0,11.1,30.19,South,183,0.0,2.0,92,0.00,,,0.00,Wunderground v.1.15,2014-02-09 00:48:00,
2014-02-08 18:53:00,12.9,11.0,30.19,South,183,0.0,0.0,92,0.00,,,0.00,Wunderground v.1.15,2014-02-09 00:53:00,
2014-02-08 18:58:00,12.7,10.8,30.19,South,183,0.0,0.0,92,0.00,,,0.00,Wunderground v.1.15,2014-02-09 00:58:00,
2014-02-08 19:03:00,12.5,10.6,30.19,South,183,0.0,1.0,92,0.00,,,0.00,Wunderground v.1.15,2014-02-09 01:03:00,
2014-02-08 19:08:00,12.3,10.4,30.19,South,183,0.0,2.0,92,0.00,,,0.00,Wunderground v.1.15,2014-02-09 01:08:00,
2014-02-08 19:13:00,12.1,10.2,30.19,South,183,1.0,1.0,92,0.00,,,0.00,Wunderground v.1.15,2014-02-09 01:13:00,
2014-02-08 19:18:00,11.9,10.0,30.19,South,183,1.0,2.0,92,0.00,,,0.00,Wunderground v.1.15,2014-02-09 01:18:00,
2014-02-08 19:23:00,11.8,9.9,30.18,South,183,1.0,1.0,92,0.00,,,0.00,Wunderground v.1.15,2014-02-09 01:23:00,
2014-02-08 19:28:00,11.7,9.8,30.19,South,183,0.0,1.0,92,0.00,,,0.00,Wunderground v.1.15,2014-02-09 01:28:00,
2014-02-08 19:33:00,11.5,9.6,30.18,South,183,0.0,0.0,92,0.00,,,0.00,Wunderground v.1.15,2014-02-09 01:33:00,
2014-02-08 19:38:00,11.6,9.7,30.19,South,183,0.0,2.0,92,0.00,,,0.00,Wunderground v.1.15,2014-02-09 01:38:00,
2014-02-08 19:43:00,11.7,10.1,30.19,South,183,1.0,1.0,93,0.00,,,0.00,Wunderground v.1.15,2014-02-09 01:43:00,
2014-02-08 19:48:00,11.8,10.2,30.19,South,183,0.0,1.0,93,0.00,,,0.00,Wunderground v.1.15,2014-02-09 01:48:00,
2014-02-08 19:53:00,12.1,10.5,30.19,South,183,0.0,2.0,93,0.00,,,0.00,Wunderground v.1.15,2014-02-09 01:53:00,
2014-02-08 19:58:00,12.4,11.0,30.19,South,183,1.0,2.0,94,0.00,,,0.00,Wunderground v.1.15,2014-02-09 01:58:00,
2014-02-08 20:03:00,12.8,11.4,30.20,South,183,1.0,2.0,94,0.00,,,0.00,Wunderground v.1.15,2014-02-09 02:03:00,
2014-02-08 20:08:00,13.0,11.6,30.20,South,183,1.0,2.0,94,0.00,,,0.00,Wunderground v.1.15,2014-02-09 02:08:00,
2014-02-08 20:13:00,13.1,11.7,30.20,South,183,1.0,2.0,94,0.00,,,0.00,Wunderground v.1.15,2014-02-09 02:13:00,
2014-02-08 20:18:00,13.2,11.6,30.20,South,183,1.0,2.0,93,0.00,,,0.00,Wunderground v.1.15,2014-02-09 02:18:00,
2014-02-08 20:23:00,13.2,11.6,30.20,South,183,1.0,2.0,93,0.00,,,0.00,Wunderground v.1.15,2014-02-09 02:23:00,
2014-02-08 20:28:00,13.2,11.6,30.20,South,183,0.0,2.0,93,0.00,,,0.00,Wunderground v.1.15,2014-02-09 02:28:00,
2014-02-08 20:33:00,13.1,11.5,30.20,South,183,0.0,1.0,93,0.00,,,0.00,Wunderground v.1.15,2014-02-09 02:33:00,
2014-02-08 20:38:00,13.0,11.4,30.19,South,183,0.0,3.0,93,0.00,,,0.00,Wunderground v.1.15,2014-02-09 02:38:00,
2014-02-08 20:43:00,13.0,11.4,30.19,South,183,1.0,2.0,93,0.00,,,0.00,Wunderground v.1.15,2014-02-09 02:43:00,
2014-02-08 20:48:00,13.0,11.4,30.19,South,183,0.0,2.0,93,0.00,,,0.00,Wunderground v.1.15,2014-02-09 02:48:00,
2014-02-08 20:53:00,12.9,11.3,30.19,South,183,0.0,0.0,93,0.00,,,0.00,Wunderground v.1.15,2014-02-09 02:53:00,
2014-02-08 20:58:00,13.0,11.4,30.19,South,183,0.0,1.0,93,0.00,,,0.00,Wunderground v.1.15,2014-02-09 02:58:00,
2014-02-08 21:03:00,12.9,11.3,30.19,South,183,0.0,1.0,93,0.00,,,0.00,Wunderground v.1.15,2014-02-09 03:03:00,
2014-02-08 21:08:00,12.9,11.3,30.19,South,183,0.0,1.0,93,0.00,,,0.00,Wunderground v.1.15,2014-02-09 03:08:00,
2014-02-08 21:13:00,12.8,11.2,30.19,South,183,0.0,0.0,93,0.00,,,0.00,Wunderground v.1.15,2014-02-09 03:13:00,
2014-02-08 21:18:00,12.5,10.9,30.19,South,183,0.0,0.0,93,0.00,,,0.00,Wunderground v.1.15,2014-02-09 03:18:00,
2014-02-08 21:23:00,12.4,10.8,30.19,South,183,0.0,1.0,93,0.00,,,0.00,Wunderground v.1.15,2014-02-09 03:23:00,
2014-02-08 21:29:00,12.3,10.7,30.19,South,183,0.0,1.0,93,0.00,,,0.00,Wunderground v.1.15,2014-02-09 03:29:00,
2014-02-08 21:34:00,12.2,10.6,30.19,South,183,0.0,1.0,93,0.00,,,0.00,Wunderground v.1.15,2014-02-09 03:34:00,
2014-02-08 21:39:00,12.3,10.7,30.20,South,183,0.0,1.0,93,0.00,,,0.00,Wunderground v.1.15,2014-02-09 03:39:00,
2014-02-08 21:44:00,12.5,10.9,30.20,South,183,0.0,3.0,93,0.00,,,0.00,Wunderground v.1.15,2014-02-09 03:44:00,
2014-02-08 21:49:00,12.7,11.1,30.19,South,183,1.0,3.0,93,0.00,,,0.00,Wunderground v.1.15,2014-02-09 03:49:00,
2014-02-08 21:54:00,12.9,11.5,30.19,South,183,1.0,3.0,94,0.00,,,0.00,Wunderground v.1.15,2014-02-09 03:54:00,
2014-02-08 21:59:00,13.0,11.6,30.19,South,183,1.0,3.0,94,0.00,,,0.00,Wunderground v.1.15,2014-02-09 03:59:00,
2014-02-08 22:04:00,12.8,11.2,30.19,WNW,285,2.0,3.0,93,0.00,,,0.00,Wunderground v.1.15,2014-02-09 04:04:00,
2014-02-08 22:09:00,12.5,10.9,30.19,WNW,292,2.0,4.0,93,0.00,,,0.00,Wunderground v.1.15,2014-02-09 04:09:00,
2014-02-08 22:14:00,12.4,10.8,30.19,WNW,292,3.0,4.0,93,0.00,,,0.00,Wunderground v.1.15,2014-02-09 04:14:00,
2014-02-08 22:19:00,12.4,10.8,30.19,WNW,291,3.0,4.0,93,0.00,,,0.00,Wunderground v.1.15,2014-02-09 04:19:00,
2014-02-08 22:24:00,12.6,11.0,30.19,WNW,291,2.0,3.0,93,0.00,,,0.00,Wunderground v.1.15,2014-02-09 04:24:00,
2014-02-08 22:29:00,12.7,11.3,30.19,WNW,291,2.0,4.0,94,0.00,,,0.00,Wunderground v.1.15,2014-02-09 04:29:00,
2014-02-08 22:34:00,12.7,11.1,30.19,WNW,291,2.0,4.0,93,0.00,,,0.00,Wunderground v.1.15,2014-02-09 04:34:00,
2014-02-08 22:39:00,12.7,11.1,30.19,WNW,291,2.0,4.0,93,0.00,,,0.00,Wunderground v.1.15,2014-02-09 04:39:00,
2014-02-08 22:44:00,12.6,11.0,30.19,WNW,291,2.0,4.0,93,0.00,,,0.00,Wunderground v.1.15,2014-02-09 04:44:00,
2014-02-08 22:49:00,12.7,11.1,30.19,WNW,291,2.0,4.0,93,0.00,,,0.00,Wunderground v.1.15,2014-02-09 04:49:00,
2014-02-08 22:54:00,12.7,11.1,30.19,WNW,291,3.0,4.0,93,0.00,,,0.00,Wunderground v.1.15,2014-02-09 04:54:00,
2014-02-08 22:59:00,12.6,11.0,30.19,WNW,291,3.0,4.0,93,0.00,,,0.00,Wunderground v.1.15,2014-02-09 04:59:00,
2014-02-08 23:01:00,12.6,11.0,30.19,WNW,291,3.0,4.0,93,0.00,,,0.00,Wunderground v.1.15,2014-02-09 05:01:00,
2014-02-08 23:02:00,12.5,10.9,30.19,WNW,291,3.0,4.0,93,0.00,,,0.00,Wunderground v.1.15,2014-02-09 05:02:00,
2014-02-08 23:07:00,12.4,10.8,30.19,WNW,291,2.0,4.0,93,0.00,,,0.00,Wunderground v.1.15,2014-02-09 05:07:00,
2014-02-08 23:12:00,12.2,10.6,30.19,WNW,291,2.0,3.0,93,0.00,,,0.00,Wunderground v.1.15,2014-02-09 05:12:00,
2014-02-08 23:17:00,12.1,10.5,30.19,WNW,291,2.0,5.0,93,0.00,,,0.00,Wunderground v.1.15,2014-02-09 05:17:00,
2014-02-08 23:22:00,12.0,10.4,30.19,WNW,291,2.0,4.0,93,0.00,,,0.00,Wunderground v.1.15,2014-02-09 05:22:00,
2014-02-08 23:27:00,11.9,10.3,30.19,WNW,295,3.0,5.0,93,0.00,,,0.00,Wunderground v.1.15,2014-02-09 05:27:00,
2014-02-08 23:32:00,12.2,10.6,30.19,WNW,298,4.0,5.0,93,0.00,,,0.00,Wunderground v.1.15,2014-02-09 05:32:00,
2014-02-08 23:37:00,12.3,10.7,30.19,WNW,298,3.0,5.0,93,0.00,,,0.00,Wunderground v.1.15,2014-02-09 05:37:00,
2014-02-08 23:42:00,12.2,10.6,30.18,WNW,298,3.0,4.0,93,0.00,,,0.00,Wunderground v.1.15,2014-02-09 05:42:00,
2014-02-08 23:47:00,12.2,10.6,30.19,WNW,298,3.0,4.0,93,0.00,,,0.00,Wunderground v.1.15,2014-02-09 05:47:00,
2014-02-08 23:52:00,12.2,10.6,30.19,WNW,298,3.0,5.0,93,0.00,,,0.00,Wunderground v.1.15,2014-02-09 05:52:00,
2014-02-08 23:57:00,12.3,10.7,30.19,WNW,298,3.0,5.0,93,0.00,,,0.00,Wunderground v.1.15,2014-02-09 05:57:00,